Back to catalog

GARUDA 1

AliveCommunicationsGEO
NORAD 26089·PAYLOAD·🇮🇩 Indonesia

Launched Feb 12, 2000 from Baikonur Cosmodrome

Loading…

TLE

FreshSource: Space-Track

Epoch: Sep 14, 2026, 03:36 UTC

1 26089U 00011A   26257.15001708  .00000014  00000-0  00000-0 0  9996
2 26089   9.8657  62.7512 0003996 153.8940 203.2060  0.99918760 42549

Track GARUDA 1 in real time with AllMySat

Download on the App Store